TimeCST,TemperatureF,Dew PointF,Humidity,Sea Level PressureIn,VisibilityMPH,Wind Direction,Wind SpeedMPH,Gust SpeedMPH,PrecipitationIn,Events,Conditions,WindDirDegrees,DateUTC
12:37 AM,30.9,30.0,96,29.96,1.5,Calm,Calm,-,N/A,,Clear,0,2013-02-24 06:37:00
12:50 AM,30.2,28.4,93,29.97,3.0,Calm,Calm,-,N/A,,Clear,0,2013-02-24 06:50:00
12:53 AM,30.0,28.9,96,29.97,3.0,Calm,Calm,-,N/A,,Clear,0,2013-02-24 06:53:00
1:53 AM,30.9,28.9,92,29.99,4.0,Calm,Calm,-,N/A,,Clear,0,2013-02-24 07:53:00
2:17 AM,30.0,28.0,92,29.99,2.5,Calm,Calm,-,N/A,,Clear,0,2013-02-24 08:17:00
2:36 AM,30.0,28.0,92,29.99,1.0,East,3.5,-,N/A,,Mist,90,2013-02-24 08:36:00
2:43 AM,28.9,27.0,92,29.99,0.8,East,3.5,-,N/A,,Mist,100,2013-02-24 08:43:00
2:46 AM,28.0,27.0,96,29.99,1.5,East,4.6,-,N/A,,Partly Cloudy,100,2013-02-24 08:46:00
2:48 AM,28.4,26.6,93,29.99,4.0,East,5.8,-,N/A,,Partly Cloudy,100,2013-02-24 08:48:00
2:53 AM,28.9,27.0,92,29.98,5.0,East,8.1,-,N/A,,Partly Cloudy,100,2013-02-24 08:53:00
3:53 AM,30.0,28.0,92,29.98,6.0,Calm,Calm,-,N/A,,Clear,0,2013-02-24 09:53:00
4:53 AM,33.1,30.9,92,29.98,7.0,NNE,3.5,-,N/A,,Clear,30,2013-02-24 10:53:00
5:53 AM,32.0,30.0,92,29.98,6.0,East,5.8,-,N/A,,Clear,80,2013-02-24 11:53:00
6:53 AM,34.0,30.9,89,29.99,5.0,East,5.8,-,N/A,,Clear,80,2013-02-24 12:53:00
7:53 AM,37.9,33.1,83,30.01,5.0,East,5.8,-,N/A,,Haze,80,2013-02-24 13:53:00
8:53 AM,42.1,34.0,73,30.04,7.0,ESE,10.4,-,N/A,,Clear,120,2013-02-24 14:53:00
9:53 AM,46.9,34.0,61,30.03,9.0,Variable,6.9,-,N/A,,Clear,0,2013-02-24 15:53:00
10:53 AM,52.0,35.1,53,30.01,10.0,ESE,11.5,-,N/A,,Clear,110,2013-02-24 16:53:00
11:53 AM,55.9,36.0,47,29.98,10.0,ESE,9.2,-,N/A,,Clear,110,2013-02-24 17:53:00
12:53 PM,57.9,35.1,42,29.94,10.0,East,6.9,-,N/A,,Clear,80,2013-02-24 18:53:00
1:53 PM,60.1,35.1,39,29.90,10.0,ESE,11.5,-,N/A,,Clear,120,2013-02-24 19:53:00
2:53 PM,61.0,36.0,39,29.86,10.0,SE,9.2,-,N/A,,Clear,140,2013-02-24 20:53:00
3:53 PM,62.1,35.1,37,29.82,10.0,East,10.4,17.3,N/A,,Clear,100,2013-02-24 21:53:00
4:53 PM,61.0,35.1,38,29.81,10.0,ESE,12.7,-,N/A,,Clear,110,2013-02-24 22:53:00
5:53 PM,59.0,35.1,41,29.82,10.0,ESE,8.1,-,N/A,,Clear,110,2013-02-24 23:53:00
7:53 PM,52.0,34.0,50,29.81,10.0,East,6.9,-,N/A,,Clear,80,2013-02-25 01:53:00
8:53 PM,50.0,34.0,54,29.81,10.0,East,9.2,-,N/A,,Clear,80,2013-02-25 02:53:00
9:53 PM,48.9,35.1,59,29.80,10.0,East,11.5,-,N/A,,Clear,80,2013-02-25 03:53:00
10:53 PM,48.0,35.1,61,29.79,10.0,East,11.5,-,N/A,,Clear,90,2013-02-25 04:53:00
11:53 PM,46.9,36.0,66,29.77,10.0,East,10.4,-,N/A,,Clear,80,2013-02-25 05:53:00